Location: Detroit
(42.3310°N, 83.0460°W)
Time: 14:50:58
(UTC-04:00)

Courier 1B Rocket - Pass Details

Date: 29 April 2024
Orbit: 920 x 1201 km, 28.2° (Epoch: 19 May)

Event Time Altitude Azimuth Distance (km) Brightness Sun altitude
Exits shadow 05:15:41 16° 230° (SW) 2,657 6.6 -12.9°
Maximum altitude 05:19:45 25° 191° (S) 2,179 6.5 -12.3°
Drops below altitude 10° 05:25:39 10° 139° (SE) 3,045 7.7 -11.4°
Sets 05:28:57 0° 127° (SE) 3,965 8.5 -10.9°
